MSR913 OMDB-HECA

Flight info

Callsign MSR913
Flight time N/A
Altitude 34000
Route SENPA N571 ALPOB L768 VATIM L550 NOVPA N697 MENLI L677 CVO
Aircraft A321/M-SDE3FGHIRWY/LB1

Departure

Time N/A
Airport Dubai International Airport (OMDB)

Arrival

Time 2026-05-04 17:43
Airport Cairo International Airport (HECA)
Time Latitude Longitude Altitude Speed Heading
2026-05-04 15:10 27.19162 49.05469 33814 ft 424 kts 293°
2026-05-04 15:11 27.20611 49.02571 33800 ft 424 kts 293°
2026-05-04 15:11 27.23492 48.96802 33803 ft 424 kts 293°
2026-05-04 15:12 27.26383 48.91018 33793 ft 424 kts 293°
2026-05-04 15:12 27.29250 48.85254 33801 ft 424 kts 293°
2026-05-04 15:13 27.32129 48.79454 33800 ft 425 kts 293°
2026-05-04 15:13 27.35006 48.73657 33817 ft 424 kts 293°
2026-05-04 15:14 27.37880 48.67865 33818 ft 423 kts 293°
2026-05-04 15:14 27.40736 48.62121 33808 ft 423 kts 293°
2026-05-04 15:15 27.43603 48.56326 33816 ft 423 kts 293°
2026-05-04 15:15 27.46463 48.50526 33829 ft 423 kts 293°
2026-05-04 15:16 27.50725 48.41875 33799 ft 422 kts 293°
2026-05-04 15:17 27.55005 48.33187 33808 ft 422 kts 293°
2026-05-04 15:17 27.59256 48.24509 33829 ft 423 kts 293°
2026-05-04 15:18 27.62110 48.18701 33820 ft 422 kts 293°
2026-05-04 15:19 27.66385 48.10008 33818 ft 422 kts 293°
2026-05-04 15:19 27.70625 48.01331 33817 ft 422 kts 292°
2026-05-04 15:20 27.73458 47.95522 33835 ft 420 kts 292°
2026-05-04 15:20 27.76256 47.89781 33826 ft 419 kts 292°
2026-05-04 15:21 27.79065 47.84000 33824 ft 419 kts 292°
2026-05-04 15:22 27.83247 47.75384 33818 ft 415 kts 292°
2026-05-04 15:22 27.86377 47.66463 33838 ft 405 kts 284°
2026-05-04 15:23 27.88246 47.60457 33830 ft 404 kts 284°
2026-05-04 15:23 27.90097 47.54499 33838 ft 403 kts 284°
2026-05-04 15:24 27.93799 47.42527 33856 ft 402 kts 283°
2026-05-04 15:25 27.95626 47.36617 33816 ft 398 kts 283°
2026-05-04 15:26 27.98359 47.27726 33820 ft 399 kts 283°
2026-05-04 15:26 28.01083 47.18847 33826 ft 399 kts 283°
2026-05-04 15:27 28.03811 47.09929 33850 ft 399 kts 283°
2026-05-04 15:28 28.06534 47.01017 33840 ft 398 kts 283°
2026-05-04 15:29 28.09232 46.92154 33836 ft 398 kts 283°
2026-05-04 15:30 28.15985 46.71588 33840 ft 398 kts 284°
2026-05-04 15:31 28.18912 46.62774 33837 ft 397 kts 284°
2026-05-04 15:32 28.23437 46.49118 33834 ft 397 kts 284°
2026-05-04 15:34 28.28271 46.34441 33834 ft 398 kts 283°
2026-05-04 15:34 28.31187 46.25578 33831 ft 398 kts 283°
2026-05-04 15:35 28.34078 46.16757 33844 ft 398 kts 283°
2026-05-04 15:36 28.37038 46.07960 33836 ft 400 kts 285°
2026-05-04 15:36 28.39243 46.02134 33835 ft 401 kts 286°
2026-05-04 15:37 28.41461 45.96354 33838 ft 401 kts 285°
2026-05-04 15:37 28.43648 45.90520 33862 ft 400 kts 285°
2026-05-04 15:38 28.45797 45.84678 33856 ft 399 kts 285°
2026-05-04 15:38 28.47932 45.78885 33852 ft 399 kts 285°
2026-05-04 15:39 28.50083 45.73070 33858 ft 399 kts 285°
2026-05-04 15:40 28.53298 45.64373 33871 ft 398 kts 285°
2026-05-04 15:40 28.55445 45.58556 33851 ft 398 kts 285°
2026-05-04 15:41 28.57565 45.52775 33860 ft 397 kts 284°
2026-05-04 15:41 28.59686 45.46973 33858 ft 396 kts 285°
2026-05-04 15:42 28.61804 45.41215 33850 ft 396 kts 285°
2026-05-04 15:42 28.63931 45.35417 33875 ft 395 kts 285°
2026-05-04 15:43 28.66038 45.29640 33868 ft 395 kts 285°
2026-05-04 15:43 28.68133 45.23893 33862 ft 395 kts 285°
2026-05-04 15:44 28.70240 45.18100 33854 ft 394 kts 285°
2026-05-04 15:44 28.72327 45.12344 33882 ft 395 kts 285°
2026-05-04 15:45 28.74428 45.06562 33877 ft 395 kts 285°
2026-05-04 15:45 28.76514 45.00806 33868 ft 394 kts 285°
2026-05-04 15:46 28.78615 44.95010 33872 ft 395 kts 285°
2026-05-04 15:46 28.80709 44.89212 33862 ft 394 kts 285°
2026-05-04 15:47 28.82781 44.83455 33863 ft 394 kts 285°
2026-05-04 15:47 28.84868 44.77656 33861 ft 394 kts 285°
2026-05-04 15:48 28.86235 44.71739 33861 ft 382 kts 271°
2026-05-04 15:48 28.86952 44.62658 33860 ft 383 kts 271°
2026-05-04 15:49 28.87440 44.56644 33867 ft 383 kts 271°
2026-05-04 15:49 28.87922 44.50584 33868 ft 383 kts 271°
2026-05-04 15:50 28.88395 44.44530 33863 ft 383 kts 270°
2026-05-04 15:50 28.88866 44.38509 33876 ft 382 kts 270°
2026-05-04 15:51 28.89343 44.32443 33870 ft 382 kts 270°
2026-05-04 15:51 28.89814 44.26429 33870 ft 382 kts 270°
2026-05-04 15:52 28.90282 44.20374 33883 ft 382 kts 270°
2026-05-04 15:52 28.90748 44.14314 33874 ft 383 kts 270°
2026-05-04 15:53 28.91207 44.08292 33874 ft 383 kts 270°
2026-05-04 15:53 28.91667 44.02232 33889 ft 383 kts 270°
2026-05-04 15:54 28.92129 43.96157 33883 ft 383 kts 270°
2026-05-04 15:54 28.92591 43.90085 33878 ft 384 kts 270°
2026-05-04 15:55 28.93038 43.84046 33854 ft 384 kts 270°
2026-05-04 15:55 28.93482 43.77954 33874 ft 384 kts 270°
2026-05-04 15:56 28.93925 43.71900 33876 ft 385 kts 270°
2026-05-04 15:56 28.94373 43.65798 33875 ft 385 kts 270°
2026-05-04 15:57 28.94818 43.59699 33878 ft 385 kts 270°
2026-05-04 15:57 28.95258 43.53626 33870 ft 386 kts 270°
2026-05-04 15:58 28.95704 43.47498 33870 ft 387 kts 270°
2026-05-04 15:58 28.96145 43.41355 33887 ft 387 kts 270°
2026-05-04 15:59 28.96573 43.35257 33880 ft 387 kts 269°
2026-05-04 15:59 28.97000 43.29103 33877 ft 388 kts 269°
2026-05-04 16:00 28.97431 43.22960 33853 ft 388 kts 269°
2026-05-04 16:00 28.97860 43.16851 33874 ft 388 kts 269°
2026-05-04 16:01 28.98288 43.10701 33879 ft 388 kts 269°
2026-05-04 16:01 28.98707 43.04559 33874 ft 388 kts 269°
2026-05-04 16:02 28.99120 42.98453 33884 ft 388 kts 269°
2026-05-04 16:03 28.99738 42.89223 33881 ft 388 kts 269°
2026-05-04 16:03 29.00151 42.83064 33879 ft 389 kts 269°
2026-05-04 16:04 29.00554 42.76938 33873 ft 389 kts 269°
2026-05-04 16:04 29.01166 42.67688 33881 ft 389 kts 269°
2026-05-04 16:05 29.01573 42.61513 33882 ft 389 kts 269°
2026-05-04 16:06 29.02171 42.52291 33877 ft 389 kts 269°
2026-05-04 16:07 29.02958 42.40003 33909 ft 388 kts 269°
2026-05-04 16:08 29.03742 42.27686 33890 ft 388 kts 269°
2026-05-04 16:09 29.04688 42.12320 33894 ft 388 kts 269°
2026-05-04 16:10 29.05451 42.00012 33890 ft 389 kts 269°
2026-05-04 16:11 29.06195 41.87686 33879 ft 389 kts 269°
2026-05-04 16:12 29.07258 41.69168 33896 ft 389 kts 269°
2026-05-04 16:13 29.07979 41.56843 33904 ft 389 kts 269°
2026-05-04 16:14 29.08677 41.44495 33913 ft 390 kts 269°
2026-05-04 16:16 29.09531 41.28982 33921 ft 391 kts 269°
2026-05-04 16:17 29.10383 41.13475 33905 ft 391 kts 268°
2026-05-04 16:18 29.11046 41.01055 33921 ft 392 kts 269°
2026-05-04 16:19 29.11870 40.85494 33938 ft 393 kts 269°
2026-05-04 16:20 29.12669 40.69915 33941 ft 393 kts 269°
2026-05-04 16:22 29.13167 40.54325 33952 ft 391 kts 264°
2026-05-04 16:23 29.12560 40.35722 33958 ft 390 kts 264°
2026-05-04 16:25 29.11921 40.17142 33976 ft 390 kts 264°
2026-05-04 16:26 29.11185 39.96477 33985 ft 390 kts 264°
2026-05-04 16:28 29.10949 39.80988 33982 ft 391 kts 267°
2026-05-04 16:29 29.11095 39.59308 33984 ft 390 kts 266°
2026-05-04 16:31 29.11126 39.43779 33997 ft 390 kts 266°
2026-05-04 16:32 29.11128 39.25233 34008 ft 389 kts 266°
2026-05-04 16:33 29.11109 39.12856 34003 ft 388 kts 266°
2026-05-04 16:34 29.11105 39.03652 33986 ft 384 kts 266°
2026-05-04 16:35 29.11053 38.85398 34022 ft 384 kts 265°
2026-05-04 16:36 29.11013 38.76234 34002 ft 383 kts 265°
2026-05-04 16:37 29.10970 38.67121 33978 ft 383 kts 265°
2026-05-04 16:38 29.10905 38.54898 33977 ft 384 kts 265°
2026-05-04 16:39 29.10788 38.39650 33982 ft 385 kts 265°
2026-05-04 16:40 29.10698 38.27393 33984 ft 385 kts 265°
2026-05-04 16:41 29.10551 38.12116 33999 ft 385 kts 265°
2026-05-04 16:43 29.10405 37.96844 33955 ft 385 kts 265°
2026-05-04 16:43 29.10299 37.87654 33955 ft 387 kts 266°
2026-05-04 16:45 29.10081 37.69137 33984 ft 389 kts 266°
2026-05-04 16:46 29.09869 37.53651 33991 ft 390 kts 265°
2026-05-04 16:47 29.09752 37.41225 34011 ft 391 kts 266°
2026-05-04 16:48 29.09664 37.28818 33992 ft 391 kts 266°
2026-05-04 16:49 29.09561 37.16355 34021 ft 391 kts 266°
2026-05-04 16:50 29.09439 37.03931 34028 ft 391 kts 266°
2026-05-04 16:51 29.09341 36.94639 34046 ft 390 kts 266°
2026-05-04 16:52 29.09194 36.82273 34032 ft 388 kts 266°
2026-05-04 16:53 29.09089 36.73046 34040 ft 387 kts 266°
2026-05-04 16:54 29.08929 36.60803 33990 ft 385 kts 266°
2026-05-04 16:55 29.08632 36.42383 34032 ft 386 kts 265°
2026-05-04 16:56 29.08177 36.27076 34031 ft 386 kts 265°
2026-05-04 16:57 29.07913 36.17864 34048 ft 386 kts 265°
2026-05-04 16:58 29.07569 36.05610 34036 ft 386 kts 265°
2026-05-04 17:00 29.07008 35.87207 34024 ft 386 kts 265°
2026-05-04 17:01 29.06537 35.71881 34052 ft 387 kts 265°
2026-05-04 17:02 29.06134 35.59550 34058 ft 388 kts 265°
2026-05-04 17:03 29.05828 35.50321 34064 ft 389 kts 265°
2026-05-04 17:03 29.05519 35.41040 34079 ft 389 kts 265°
2026-05-04 17:04 29.05088 35.28729 34073 ft 388 kts 265°
2026-05-04 17:05 29.04652 35.16383 34071 ft 388 kts 265°
2026-05-04 17:06 29.04321 35.07188 34067 ft 387 kts 265°
2026-05-04 17:07 29.04021 34.98995 34059 ft 387 kts 265°
2026-05-04 17:07 29.03745 34.91840 34037 ft 388 kts 265°
2026-05-04 17:08 29.03393 34.82573 34023 ft 389 kts 265°
2026-05-04 17:09 29.03287 34.76420 34030 ft 389 kts 266°
2026-05-04 17:09 29.03241 34.70218 34031 ft 390 kts 267°
2026-05-04 17:10 29.04100 34.64098 34033 ft 399 kts 283°
2026-05-04 17:10 29.06778 34.55064 34041 ft 399 kts 283°
2026-05-04 17:11 29.08546 34.49037 34050 ft 399 kts 283°
2026-05-04 17:12 29.11160 34.40085 34070 ft 394 kts 283°
2026-05-04 17:13 29.15489 34.25232 34076 ft 394 kts 283°
2026-05-04 17:14 29.18665 34.14309 34077 ft 394 kts 283°
2026-05-04 17:15 29.21246 34.05377 34094 ft 394 kts 283°
2026-05-04 17:16 29.24685 33.93507 34103 ft 393 kts 283°
2026-05-04 17:17 29.28101 33.81640 34095 ft 392 kts 283°
2026-05-04 17:18 29.31497 33.69782 34089 ft 392 kts 283°
2026-05-04 17:19 29.34875 33.57912 34098 ft 390 kts 283°
2026-05-04 17:20 29.38242 33.46094 34088 ft 390 kts 283°
2026-05-04 17:20 29.40749 33.37255 34085 ft 390 kts 283°
2026-05-04 17:21 29.44087 33.25437 34083 ft 389 kts 283°
2026-05-04 17:22 29.45755 33.19551 34081 ft 389 kts 283°
2026-05-04 17:23 29.49082 33.07701 34079 ft 390 kts 283°
2026-05-04 17:24 29.51566 32.98831 34071 ft 390 kts 283°
2026-05-04 17:25 29.54884 32.86990 34078 ft 390 kts 283°
2026-05-04 17:26 29.58180 32.75119 34075 ft 389 kts 283°
2026-05-04 17:26 29.60594 32.66208 33324 ft 388 kts 281°
2026-05-04 17:27 29.62348 32.60341 32071 ft 401 kts 294°
2026-05-04 17:27 29.65291 32.54738 29939 ft 413 kts 296°
2026-05-04 17:28 29.68316 32.49090 27586 ft 420 kts 296°
2026-05-04 17:29 29.72934 32.40396 24295 ft 425 kts 296°
2026-05-04 17:29 29.77471 32.31796 20908 ft 399 kts 297°
2026-05-04 17:30 29.81693 32.23769 17924 ft 391 kts 297°
2026-05-04 17:31 29.84481 32.18438 16406 ft 378 kts 298°
2026-05-04 17:31 29.88416 32.10932 14787 ft 353 kts 298°
2026-05-04 17:32 29.90900 32.06169 13801 ft 339 kts 298°
2026-05-04 17:33 29.94400 31.99977 11877 ft 295 kts 301°
2026-05-04 17:33 29.95595 31.97926 11100 ft 322 kts 302°
2026-05-04 17:34 29.97934 31.93886 9307 ft 343 kts 302°
2026-05-04 17:34 29.98510 31.92888 8889 ft 344 kts 302°
2026-05-04 17:35 30.02435 31.86063 7300 ft 320 kts 302°
2026-05-04 17:35 30.04750 31.82039 7046 ft 286 kts 302°
2026-05-04 17:35 30.05820 31.80171 6923 ft 272 kts 301°
2026-05-04 17:36 30.06845 31.78384 6785 ft 260 kts 301°
2026-05-04 17:36 30.07837 31.76653 6483 ft 256 kts 301°
2026-05-04 17:36 30.08814 31.74945 6090 ft 255 kts 301°
2026-05-04 17:36 30.09779 31.73251 5671 ft 255 kts 302°
2026-05-04 17:37 30.10756 31.71537 5291 ft 254 kts 302°
2026-05-04 17:37 30.11728 31.69837 4953 ft 251 kts 303°
2026-05-04 17:37 30.12685 31.68163 4649 ft 248 kts 303°
2026-05-04 17:37 30.13597 31.66566 4295 ft 237 kts 303°
2026-05-04 17:38 30.14494 31.64995 3929 ft 231 kts 303°
2026-05-04 17:38 30.15379 31.63437 3240 ft 232 kts 304°
2026-05-04 17:38 30.16272 31.61865 2838 ft 233 kts 304°
2026-05-04 17:38 30.17142 31.60332 2708 ft 222 kts 304°
2026-05-04 17:39 30.18755 31.57496 2354 ft 205 kts 305°
2026-05-04 17:39 30.19438 31.56099 2189 ft 194 kts 292°
2026-05-04 17:39 30.19693 31.54579 2075 ft 194 kts 275°
2026-05-04 17:40 30.19485 31.53017 2001 ft 201 kts 255°
2026-05-04 17:40 30.18808 31.51616 1994 ft 197 kts 236°
2026-05-04 17:40 30.17953 31.50488 1973 ft 174 kts 236°
2026-05-04 17:40 30.17212 31.49498 1821 ft 157 kts 236°
2026-05-04 17:41 30.16527 31.48579 1631 ft 149 kts 237°
2026-05-04 17:41 30.15853 31.47675 1436 ft 148 kts 236°
2026-05-04 17:41 30.15185 31.46783 1251 ft 144 kts 235°
2026-05-04 17:41 30.14527 31.45919 1065 ft 142 kts 236°
2026-05-04 17:42 30.13896 31.45061 874 ft 141 kts 236°
2026-05-04 17:42 30.13248 31.44198 654 ft 142 kts 236°
2026-05-04 17:42 30.12599 31.43330 561 ft 143 kts 235°
2026-05-04 17:42 30.11935 31.42456 399 ft 141 kts 235°
2026-05-04 17:43 30.11368 31.41678 389 ft 111 kts 227°
2026-05-04 17:43 30.10926 31.41101 389 ft 82 kts 230°
2026-05-04 17:43 30.10646 31.40733 386 ft 44 kts 231°
2026-05-04 17:43 30.10529 31.40484 388 ft 30 kts 254°
2026-05-04 17:44 30.10500 31.40322 388 ft 0 kts 257°
2026-05-04 17:44 30.10500 31.40320 388 ft 1 kts 257°
2026-05-04 17:44 30.10497 31.40307 388 ft 3 kts 258°
2026-05-04 17:44 30.10489 31.40258 388 ft 7 kts 260°